Wind_Speed
20 21 22 25 27 28 29 35 38 37 37 38 38 42 42 42 43 50 55 59 62 65 61 55 50 44 42 39 34 32 34 34 35 33 33 31 24 20 18 18 18 22 27 29 34 35 38 26 20 22 27 25 27 26
20 22 26 28 29 31 33 32 32 33 34 36 38 39 44 46 42 44 45 50 55 58 62 60 56 48 43 41 33 32 34 36 36 34 32 31 29 25 22 19 19 23 26 34 36 35 37 32 31 29 23 27 22 27
19 23 26 30 32 35 30 27 30 31 34 35 34 35 40 42 42 44 42 42 51 54 55 59 59 51 47 43 38 34 34 37 37 36 35 32 32 29 25 23 20 21 25 28 34 36 37 39 30 29 28 28 26 26
20 23 27 28 27 24 23 27 31 34 36 38 38 36 38 36 38 41 39 40 43 44 53 56 55 55 48 44 41 38 37 36 40 39 37 35 33 31 30 28 26 25 26 29 28 33 42 39 36 34 32 30 29 29
20 22 25 25 21 19 20 23 21 26 28 28 36 33 37 35 32 36 34 35 38 43 45 46 50 56 55 48 39 39 37 38 40 42 41 39 37 35 33 32 30 28 27 31 34 35 38 31 33 35 35 31 31 35
17 24 25 16 17 14 17 16 14 8 24 29 35 31 34 37 33 33 32 34 35 37 38 39 43 43 39 41 41 38 34 37 37 41 42 41 41 40 38 36 34 32 32 33 35 37 39 38 32 34 29 25 28 29
19 25 19 22 16 14 19 20 23 24 26 29 34 30 40 35 28 28 29 28 31 31 26 21 25 22 24 23 24 29 31 31 24 30 38 38 39 41 41 37 36 35 35 35 35 40 36 45 37 27 26 29 31 31
17 19 16 24 17 17 20 28 28 26 30 32 36 34 36 36 33 29 26 25 36 38 26 23 28 27 37 27 28 27 29 27 28 26 28 31 32 35 39 40 38 37 34 36 38 36 34 44 47 41 32 30 31 31
17 16 18 25 20 18 21 26 28 31 34 35 39 40 38 31 28 26 31 47 47 37 23 27 31 29 30 31 31 29 33 28 27 27 28 28 30 39 41 38 38 40 42 37 43 39 36 37 42 41 39 33 33 34
16 17 22 20 24 26 24 23 30 35 32 37 41 37 34 31 26 27 41 38 18 11 12 19 31 28 23 24 28 29 29 29 29 29 31 33 33 35 36 37 39 33 31 35 41 39 34 30 33 39 43 41 36 36
14 16 17 19 23 26 31 32 36 38 37 24 30 30 36 39 32 31 31 26 28 26 27 29 24 24 22 21 22 23 23 22 22 23 29 34 36 34 36 35 32 35 35 31 32 31 35 37 33 36 41 41 41 37
13 17 18 21 23 25 23 21 20 23 29 33 27 36 35 30 28 34 24 22 24 23 26 23 18 18 14 15 17 18 18 23 22 24 30 32 30 32 35 40 42 33 28 32 41 41 32 31 31 35 39 44 39 37
10 14 20 25 23 21 20 23 27 26 26 31 29 31 28 24 28 26 20 17 19 19 15 15 13 17 14 12 17 17 19 22 16 11 7 8 11 20 32 43 49 53 52 44 34 29 32 19 28 31 33 34 38 41
13 12 14 20 15 14 17 22 26 30 31 28 22 23 22 27 22 16 14 11 12 11 14 15 14 14 14 15 13 13 17 18 13 10 8 8 12 13 17 24 30 27 28 43 38 25 13 16 23 27 33 36 35 37
14 15 15 16 18 18 16 14 19 24 27 26 22 19 17 15 13 11 10 13 12 12 12 11 14 12 16 15 13 13 17 20 15 11 13 15 15 15 16 16 12 19 18 29 21 19 24 27 26 27 34 39 39 39
13 12 14 16 16 16 17 18 19 18 16 15 15 16 17 16 15 14 14 14 12 11 10 10 13 15 18 20 18 19 17 16 17 14 13 13 14 12 14 13 8 16 19 25 27 29 29 32 35 34 33 35 37 38
17 14 12 17 18 17 17 17 17 18 17 16 14 14 14 14 14 12 12 12 11 11 10 10 8 7 8 11 15 21 18 13 10 7 8 11 9 8 8 12 16 20 23 24 26 29 30 30 33 35 44 37 37 35
13 14 15 13 14 15 17 17 16 15 16 16 17 17 17 17 17 15 14 10 9 13 13 10 10 9 4 5 11 14 13 11 12 15 16 14 12 12 12 12 14 17 19 22 26 28 29 30 37 35 38 37 35 36
16 16 15 14 10 9 12 16 19 20 19 19 17 16 17 16 15 14 11 12 16 12 10 7 6 6 5 6 8 9 12 14 15 17 16 15 16 16 16 20 22 24 25 25 26 33 35 35 33 29 29 31 32 34
18 17 18 18 18 14 11 15 22 23 21 22 20 18 16 14 13 13 11 12 13 10 8 4 2 2 3 6 9 11 13 14 14 14 15 16 17 17 17 18 19 20 19 18 21 24 27 28 28 29 29 30 31 32
19 19 18 17 19 24 21 22 22 25 24 19 18 18 16 13 9 7 7 10 15 10 8 9 10 7 7 8 10 12 15 17 18 20 21 22 22 23 23 23 23 24 25 25 26 26 28 28 29 30 32 34 35 37
19 19 19 18 19 20 23 28 27 25 24 20 18 15 13 12 11 10 9 10 11 13 12 11 12 13 15 17 19 21 23 25 26 27 28 29 29 30 31 31 32 33 33 34 34 35 36 36 37 38 40 41 43 43
19 20 22 23 21 21 21 21 24 24 25 23 20 16 14 11 8 6 5 5 7 9 12 15 18 21 24 26 28 30 31 33 34 35 36 37 38 39 39 39 39 39 39 40 40 41 41 42 43 43 43 44 44 45
15 20 22 18 16 19 20 21 20 17 16 14 13 8 6 2 3 5 9 12 15 19 21 24 26 29 32 34 35 37 38 40 41 43 46 47 46 43 39 37 37 39 40 42 42 42 42 42 42 43 43 43 43 43
12 16 16 14 11 12 11 12 11 10 7 7 5 4 5 8 11 14 17 20 23 25 28 29 31 33 35 38 40 43 47 50 52 50 46 42 37 35 33 33 34 35 37 37 38 39 39 40 40 41 41 40 40 40
10 11 10 9 7 6 5 5 4 2 1 4 8 11 14 17 19 22 24 26 28 30 32 34 36 39 42 46 50 53 52 47 42 37 34 32 32 32 32 32 33 34 35 35 35 36 35 36 36 35 35 35 35 35
10 9 8 7 5 3 2 2 3 6 10 12 15 18 20 23 25 27 29 30 31 34 36 39 43 48 52 53 49 45 40 35 32 30 29 28 28 28 28 28 29 30 30 31 32 32 33 33 34 35 35 35 35 35
11 9 8 6 5 5 5 6 9 12 15 17 20 22 25 28 30 30 31 33 35 39 44 49 50 48 45 42 38 34 30 26 24 22 21 20 20 20 21 21 22 23 23 24 25 25 26 27 28 28 28 27 26 25
12 10 8 6 7 8 9 11 14 17 20 23 25 27 29 30 31 32 34 39 45 48 47 45 43 41 37 33 30 26 22 20 19 18 18 18 17 18 18 19 20 20 21 21 21 21 21 21 21 20 20 19 17 17
12 10 10 10 11 11 14 17 20 23 26 28 30 30 30 32 34 38 44 46 45 43 42 40 37 32 28 25 22 20 19 19 20 20 21 22 23 23 23 23 23 23 23 22 21 21 20 19 16 12 12 16 18 21
14 12 12 13 14 17 20 22 25 27 29 30 31 32 33 36 41 44 43 42 41 39 36 32 27 23 21 21 20 20 20 20 20 20 20 20 20 20 20 19 19 18 17 16 14 12 10 9 11 15 18 20 22 24
14 14 15 16 19 22 23 25 28 30 30 30 32 34 38 42 42 42 42 41 37 32 27 22 19 20 21 21 19 18 17 16 14 13 12 11 11 11 10 10 10 9 8 8 8 9 12 14 17 19 22 22 21 22
16 17 20 22 22 24 26 27 28 28 29 31 34 37 38 39 41 42 41 37 32 27 21 18 20 20 19 16 14 13 11 10 9 9 9 9 10 10 10 10 9 9 10 12 14 16 17 19 20 19 19 21 23 26
Wind_Direction
291 289 292 297 294 287 283 275 268 262 256 250 242 236 233 230 227 231 229 220 225 227 231 231 232 229 227 228 231 225 216 218 218 221 228 234 237 237 248 250 236 238 239 246 252 257 258 261 257 251 244 252 260 258
292 298 302 295 289 287 288 281 268 258 252 247 242 237 230 227 227 226 225 224 221 222 227 229 229 228 225 223 222 217 210 213 219 222 229 234 236 237 246 253 246 239 237 242 242 246 247 255 257 268 259 250 257 254
311 311 305 303 297 292 283 277 268 257 249 243 238 230 222 222 225 226 219 218 217 218 220 225 231 226 223 223 221 214 210 213 220 223 225 228 231 232 235 240 235 240 246 245 243 239 245 250 257 265 267 257 258 250
325 320 315 311 313 308 292 282 275 266 257 247 233 221 213 211 213 216 217 213 218 218 225 226 229 228 221 222 222 216 213 216 218 223 225 229 233 235 233 234 236 243 247 250 252 247 240 243 248 257 253 251 255 257
332 326 334 334 329 321 321 310 287 278 246 218 203 202 198 200 195 202 201 204 208 212 213 216 225 230 230 224 225 221 219 220 222 224 229 231 234 237 240 240 241 240 249 257 260 260 238 235 242 251 248 247 256 258
342 345 347 349 349 352 1 7 0 68 152 168 176 176 173 174 186 190 195 195 198 203 206 210 217 215 229 226 230 228 227 222 226 228 230 232 235 238 241 241 238 243 248 254 256 260 244 224 227 236 245 248 252 257
9 355 21 25 24 49 50 52 72 100 123 138 157 165 159 169 177 183 187 185 189 189 187 181 178 178 181 193 216 221 226 225 224 230 232 234 235 237 238 239 239 245 249 254 255 256 250 229 231 241 245 242 247 254
22 19 37 29 70 68 73 79 87 97 114 133 143 152 156 160 164 167 170 174 162 152 152 168 180 173 165 183 178 189 203 208 220 220 222 227 233 237 239 240 243 242 247 257 256 256 250 234 231 243 239 239 244 250
41 41 43 42 79 82 82 91 94 96 106 121 128 137 144 147 151 158 164 156 159 144 119 152 179 182 184 192 194 205 209 214 222 222 226 231 231 233 239 237 240 242 243 252 251 252 252 235 229 238 240 244 244 245
63 72 70 74 70 87 90 100 103 103 106 108 115 124 134 141 139 149 167 149 136 145 160 187 174 181 183 196 198 203 215 226 226 228 228 231 238 242 237 236 237 244 249 254 244 245 242 242 238 232 237 249 257 252
76 68 86 96 101 104 107 104 105 109 96 113 112 111 130 131 123 140 139 135 133 148 170 175 176 182 177 187 196 209 215 220 231 238 239 241 245 247 246 243 245 247 246 249 227 234 241 242 244 241 241 246 250 260
90 78 91 108 114 117 107 99 91 95 110 117 129 130 131 138 138 154 153 147 151 161 162 169 174 170 179 191 198 209 220 223 240 241 243 249 259 261 255 251 247 245 250 245 244 247 252 246 245 244 249 251 254 253
109 101 110 124 138 124 108 95 93 109 120 120 125 138 137 144 151 146 145 145 158 161 164 174 180 190 198 205 216 221 233 229 218 224 240 268 268 262 254 255 255 254 251 246 232 240 245 223 233 248 251 254 257 257
148 141 128 143 148 136 132 119 123 126 136 141 138 137 144 149 157 166 171 165 161 174 178 188 195 200 213 217 225 231 216 206 225 206 237 276 263 267 270 257 248 250 235 223 221 235 249 254 253 269 260 263 265 261
153 159 159 149 146 153 138 135 135 139 137 150 157 165 168 165 169 178 178 183 180 185 185 200 203 211 220 230 243 226 212 214 218 245 267 286 295 290 273 254 242 229 217 214 225 262 265 271 271 258 245 254 261 260
138 153 162 168 163 159 164 159 164 174 174 166 161 158 167 170 172 178 183 184 189 204 224 238 244 240 239 244 237 213 209 214 229 258 282 294 294 281 252 240 235 241 248 242 259 267 269 272 273 262 257 259 259 259
112 114 132 165 156 161 164 162 166 176 183 188 187 177 175 184 185 189 183 180 186 196 222 234 231 230 251 245 216 203 210 230 243 271 277 283 296 294 257 224 234 240 242 248 258 262 262 269 274 272 249 254 255 259
107 110 116 128 149 163 173 174 165 156 157 154 152 152 156 157 155 154 159 164 166 158 147 130 125 125 149 167 174 194 215 234 265 262 283 286 291 287 279 268 252 258 266 263 264 265 266 274 264 255 249 251 260 266
113 113 113 115 127 150 166 177 169 158 156 152 150 152 157 152 151 152 149 147 153 143 140 136 144 174 194 202 220 240 252 269 275 277 279 282 289 290 284 273 271 271 276 275 274 263 261 260 258 254 253 255 259 264
122 122 120 112 101 97 112 148 166 169 163 159 156 157 153 149 147 148 147 161 153 143 148 170 305 257 258 256 263 269 272 275 283 291 296 296 292 290 287 283 277 276 276 276 271 264 260 259 259 259 259 260 260 261
118 113 109 108 103 90 87 96 136 158 168 162 161 160 167 174 167 159 157 177 185 193 229 262 277 272 260 254 256 259 263 267 270 273 274 274 275 277 277 275 271 265 263 263 263 263 265 266 266 266 265 266 267 268
115 116 112 106 98 94 91 90 102 129 154 153 151 155 150 157 160 158 159 175 200 227 239 243 245 253 261 269 273 274 276 277 278 279 279 280 283 282 281 280 278 276 273 270 267 265 264 263 263 263 263 265 267 270
106 110 109 96 99 100 95 94 101 108 120 124 128 132 135 144 155 176 217 232 241 254 261 266 270 276 280 280 279 281 283 284 284 283 283 284 286 288 287 283 280 276 273 271 268 266 265 265 265 266 267 269 271 273
112 103 106 112 108 107 105 105 106 109 112 110 106 113 121 133 220 262 275 276 277 277 277 278 280 283 285 284 285 286 287 288 289 291 294 296 295 293 287 279 270 264 262 261 261 262 262 263 265 266 269 272 276 280
123 116 115 117 108 110 110 113 120 127 134 141 158 207 242 262 271 276 280 282 284 285 287 288 289 290 292 294 297 300 301 303 303 302 299 295 290 284 277 272 268 267 266 266 267 267 268 270 272 275 277 278 280 281
136 129 131 124 120 118 116 124 123 123 300 299 301 301 301 301 301 299 297 297 297 297 297 297 298 300 302 302 303 304 305 303 300 296 292 287 283 280 276 272 270 270 270 271 272 273 274 276 277 278 279 280 280 281
159 157 154 152 149 159 187 234 286 303 309 310 311 311 310 308 308 309 308 306 305 304 305 305 306 305 305 306 304 303 301 298 293 288 285 283 282 281 280 278 276 275 275 275 275 277 278 279 279 280 280 281 282 283
178 176 175 188 203 221 251 278 296 306 311 312 310 310 313 314 314 313 311 311 311 311 310 309 309 308 306 304 303 301 298 293 289 285 283 283 283 282 282 281 281 280 280 280 280 280 281 282 283 283 284 284 284 284
191 194 205 228 244 265 279 291 300 306 312 314 314 316 316 316 315 315 316 316 316 315 315 313 311 308 307 305 304 301 296 290 287 286 286 287 289 289 289 287 286 285 284 283 283 284 284 285 286 286 286 285 284 286
208 228 242 252 268 281 292 298 301 306 311 315 318 317 317 317 318 319 320 319 320 319 317 314 312 311 310 309 307 304 297 290 287 287 288 287 287 287 286 285 285 283 282 281 282 284 284 284 283 280 285 290 292 295
227 240 261 268 280 290 297 303 306 307 313 317 316 316 318 320 322 323 324 326 326 324 320 317 316 314 311 309 306 303 299 295 293 292 291 291 289 289 288 286 285 284 284 283 280 276 272 274 282 290 295 298 300 301
245 258 267 277 286 296 303 305 308 312 314 314 315 319 322 324 326 329 333 332 330 327 324 324 323 319 318 315 313 311 309 307 307 308 308 308 309 306 301 299 296 290 286 282 278 280 285 290 294 297 300 301 302 304
253 265 277 288 296 301 305 307 309 310 312 316 320 324 326 329 333 336 338 338 334 331 327 326 330 331 328 323 321 319 320 321 319 316 317 317 316 313 310 305 300 294 290 289 290 292 295 298 301 303 304 306 307 309
Height
5364 5361 5358 5355 5351 5348 5346 5344 5343 5343 5345 5349 5353 5358 5364 5371 5377 5383 5396 5406 5416 5426 5432 5444 5452 5462 5472 5480 5487 5491 5495 5501 5506 5510 5514 5518 5524 5527 5529 5534 5537 5540 5545 5549 5553 5557 5562 5566 5570 5574 5576 5579 5581 5580
5357 5353 5349 5345 5340 5336 5332 5328 5327 5328 5330 5333 5338 5344 5351 5359 5367 5374 5384 5394 5405 5415 5424 5432 5442 5454 5464 5471 5475 5480 5490 5495 5500 5505 5510 5515 5519 5525 5527 5530 5534 5537 5540 5542 5547 5551 5556 5558 5562 5566 5569 5572 5574 5575
5351 5346 5341 5335 5329 5323 5318 5315 5313 5314 5316 5320 5325 5331 5340 5349 5358 5367 5378 5386 5395 5404 5416 5423 5434 5447 5454 5462 5468 5477 5483 5488 5494 5499 5504 5508 5513 5519 5522 5525 5530 5532 5534 5536 5541 5547 5548 5552 5557 5561 5562 5563 5566 5568
5345 5340 5333 5326 5318 5311 5306 5302 5298 5296 5297 5302 5311 5320 5330 5341 5350 5359 5373 5384 5390 5401 5409 5420 5425 5434 5446 5453 5463 5471 5476 5482 5488 5493 5498 5503 5509 5514 5518 5521 5524 5525 5529 5531 5535 5538 5541 5546 5550 5554 5555 5556 5558 5560
5341 5335 5328 5320 5313 5306 5299 5290 5283 5277 5277 5286 5298 5312 5324 5338 5347 5356 5367 5376 5382 5391 5400 5411 5416 5425 5436 5448 5456 5463 5469 5477 5482 5487 5493 5498 5502 5507 5512 5517 5520 5522 5524 5525 5528 5528 5532 5540 5543 5547 5548 5549 5552 5555
5340 5334 5326 5318 5311 5304 5297 5286 5277 5266 5267 5281 5295 5309 5322 5335 5345 5355 5362 5370 5378 5388 5398 5405 5411 5422 5431 5443 5450 5458 5464 5471 5475 5480 5486 5490 5494 5499 5503 5508 5512 5515 5517 5519 5521 5522 5526 5530 5534 5537 5540 5545 5546 5546
5342 5335 5327 5320 5312 5308 5302 5293 5286 5282 5283 5290 5302 5314 5327 5339 5349 5357 5365 5373 5380 5389 5398 5405 5410 5420 5431 5440 5447 5454 5461 5466 5470 5474 5479 5484 5488 5490 5495 5500 5505 5507 5509 5510 5512 5514 5517 5523 5527 5530 5533 5537 5537 5539
5345 5339 5332 5324 5318 5315 5311 5306 5302 5300 5301 5305 5313 5322 5332 5342 5351 5359 5366 5374 5382 5391 5398 5407 5414 5422 5428 5438 5443 5452 5457 5461 5464 5469 5473 5477 5480 5483 5487 5494 5497 5500 5501 5502 5503 5505 5508 5512 5519 5523 5526 5529 5529 5531
5349 5344 5338 5332 5326 5323 5321 5319 5317 5316 5316 5319 5324 5331 5339 5349 5357 5364 5369 5377 5383 5393 5397 5404 5414 5422 5430 5435 5441 5447 5452 5457 5462 5466 5469 5472 5473 5474 5481 5486 5489 5491 5494 5495 5496 5499 5501 5503 5508 5514 5517 5520 5521 5523
5353 5349 5346 5340 5336 5333 5331 5330 5330 5330 5333 5335 5339 5345 5351 5359 5365 5370 5377 5384 5391 5398 5404 5410 5416 5424 5431 5436 5440 5446 5450 5453 5457 5462 5464 5467 5468 5470 5473 5477 5479 5482 5485 5487 5488 5491 5494 5496 5499 5503 5507 5509 5512 5514
5358 5355 5352 5349 5346 5345 5343 5343 5343 5344 5347 5350 5351 5355 5363 5369 5374 5381 5386 5391 5396 5401 5406 5412 5420 5426 5432 5436 5441 5445 5448 5452 5455 5458 5460 5461 5462 5465 5467 5469 5472 5474 5477 5479 5481 5483 5487 5488 5491 5495 5497 5500 5502 5503
5362 5361 5358 5357 5356 5355 5354 5353 5355 5356 5357 5361 5364 5369 5375 5379 5385 5391 5394 5398 5402 5407 5411 5417 5422 5427 5431 5435 5440 5444 5446 5449 5451 5453 5453 5454 5458 5458 5459 5461 5464 5466 5469 5471 5473 5476 5478 5478 5480 5484 5487 5490 5492 5493
5365 5366 5366 5365 5364 5364 5364 5364 5365 5367 5370 5373 5375 5379 5382 5388 5393 5396 5398 5403 5407 5411 5417 5421 5425 5429 5432 5436 5438 5441 5443 5445 5447 5448 5449 5450 5450 5450 5449 5450 5450 5452 5456 5462 5466 5469 5470 5469 5473 5476 5478 5480 5482 5483
5367 5369 5371 5371 5371 5371 5373 5374 5375 5377 5379 5383 5384 5387 5391 5394 5399 5403 5406 5409 5413 5416 5420 5423 5426 5429 5432 5435 5437 5439 5440 5442 5444 5446 5447 5446 5446 5444 5443 5440 5440 5440 5442 5449 5457 5461 5462 5465 5466 5467 5468 5470 5472 5473
5368 5370 5371 5374 5375 5377 5378 5380 5383 5385 5387 5390 5393 5395 5397 5400 5403 5407 5410 5413 5416 5418 5422 5424 5427 5429 5431 5433 5434 5436 5437 5439 5442 5443 5442 5440 5439 5438 5436 5435 5435 5436 5440 5445 5451 5453 5455 5456 5457 5459 5460 5460 5460 5461
5369 5370 5372 5374 5377 5379 5382 5384 5387 5389 5391 5395 5398 5400 5402 5405 5408 5410 5413 5415 5418 5420 5422 5424 5425 5426 5427 5428 5429 5431 5435 5437 5440 5439 5438 5437 5435 5433 5432 5431 5432 5436 5439 5441 5444 5445 5446 5446 5447 5448 5448 5449 5449 5450
5372 5373 5374 5376 5378 5380 5383 5386 5388 5390 5393 5396 5398 5401 5404 5407 5409 5411 5413 5416 5418 5420 5421 5422 5423 5423 5423 5424 5426 5430 5434 5436 5436 5435 5435 5434 5432 5430 5430 5429 5431 5432 5434 5435 5436 5436 5437 5437 5436 5435 5436 5437 5438 5438
5375 5376 5377 5379 5380 5381 5383 5386 5389 5391 5394 5397 5399 5402 5405 5407 5410 5413 5415 5418 5420 5421 5423 5424 5425 5425 5426 5426 5428 5430 5431 5432 5432 5432 5431 5431 5429 5428 5427 5427 5428 5428 5428 5428 5427 5427 5427 5427 5426 5425 5424 5425 5425 5425
5379 5380 5381 5381 5382 5383 5384 5386 5390 5392 5396 5399 5402 5404 5407 5411 5414 5417 5419 5420 5422 5424 5425 5426 5427 5428 5428 5428 5429 5430 5430 5430 5429 5428 5427 5426 5425 5424 5423 5422 5422 5422 5421 5420 5419 5418 5418 5418 5417 5416 5415 5414 5413 5413
5384 5385 5385 5386 5386 5385 5384 5385 5389 5394 5397 5400 5404 5408 5412 5414 5417 5419 5421 5422 5424 5426 5427 5428 5428 5428 5428 5428 5428 5427 5427 5426 5425 5424 5422 5421 5420 5419 5417 5417 5415 5414 5414 5413 5412 5411 5410 5409 5407 5406 5405 5404 5403 5402
5389 5390 5391 5392 5392 5391 5391 5388 5391 5395 5401 5406 5409 5412 5415 5418 5420 5421 5423 5424 5426 5427 5427 5427 5427 5426 5426 5425 5425 5424 5423 5422 5420 5419 5417 5415 5414 5412 5411 5410 5408 5407 5406 5405 5404 5402 5402 5401 5399 5398 5396 5395 5394 5393
5395 5396 5397 5398 5398 5399 5400 5399 5399 5402 5407 5410 5413 5416 5418 5420 5422 5423 5424 5425 5425 5426 5426 5425 5424 5423 5422 5421 5420 5419 5417 5415 5413 5411 5409 5407 5405 5404 5402 5400 5399 5397 5396 5394 5393 5392 5390 5389 5388 5386 5384 5383 5381 5380
5401 5403 5403 5404 5406 5407 5408 5408 5410 5413 5414 5416 5419 5421 5422 5423 5424 5425 5426 5425 5425 5425 5424 5423 5421 5420 5418 5416 5414 5411 5409 5406 5404 5401 5399 5396 5394 5392 5390 5388 5386 5384 5383 5381 5379 5378 5377 5375 5374 5372 5371 5369 5368 5366
5407 5407 5409 5412 5414 5414 5415 5416 5418 5420 5421 5422 5424 5425 5426 5426 5426 5426 5425 5424 5423 5422 5420 5418 5416 5413 5411 5407 5404 5401 5398 5395 5391 5388 5384 5381 5378 5375 5373 5371 5369 5367 5366 5364 5363 5362 5362 5361 5360 5358 5357 5356 5354 5352
5413 5414 5415 5417 5418 5419 5420 5421 5422 5424 5425 5426 5426 5426 5426 5426 5425 5424 5423 5421 5418 5416 5413 5411 5408 5404 5400 5396 5392 5388 5384 5379 5375 5370 5366 5363 5361 5358 5357 5356 5355 5353 5352 5351 5350 5349 5349 5348 5347 5346 5345 5344 5342 5341
5415 5416 5419 5419 5421 5423 5423 5424 5425 5425 5426 5426 5426 5425 5424 5423 5422 5420 5417 5415 5412 5409 5405 5401 5397 5392 5388 5383 5378 5372 5367 5362 5357 5354 5351 5349 5347 5345 5344 5344 5343 5342 5341 5340 5339 5338 5337 5336 5336 5335 5334 5333 5331 5330
5416 5418 5420 5421 5422 5424 5424 5425 5426 5426 5425 5425 5424 5422 5421 5418 5416 5413 5410 5407 5403 5399 5395 5390 5385 5379 5373 5367 5361 5355 5351 5347 5344 5341 5339 5337 5336 5334 5333 5332 5332 5331 5331 5330 5329 5328 5327 5326 5325 5324 5323 5321 5320 5318
5417 5418 5421 5422 5423 5423 5424 5424 5424 5424 5423 5422 5420 5418 5416 5413 5410 5406 5402 5398 5393 5388 5383 5376 5369 5363 5357 5351 5346 5342 5339 5336 5334 5332 5330 5329 5328 5326 5325 5324 5323 5322 5321 5320 5319 5319 5317 5316 5315 5313 5312 5310 5309 5308
5416 5418 5420 5420 5422 5422 5422 5422 5421 5420 5418 5417 5414 5411 5408 5405 5401 5396 5392 5387 5381 5374 5367 5360 5354 5348 5343 5338 5335 5332 5330 5328 5327 5325 5324 5323 5322 5321 5319 5317 5316 5315 5314 5312 5311 5310 5309 5308 5307 5306 5304 5303 5302 5301
5416 5417 5418 5419 5419 5419 5419 5418 5416 5415 5412 5410 5408 5404 5400 5396 5392 5386 5381 5374 5367 5360 5354 5347 5341 5336 5332 5329 5327 5325 5323 5322 5320 5319 5318 5316 5314 5313 5311 5310 5308 5307 5306 5305 5304 5303 5302 5301 5300 5300 5299 5298 5297 5295
5413 5414 5415 5415 5415 5415 5414 5412 5410 5408 5406 5403 5399 5396 5392 5387 5381 5375 5369 5363 5356 5349 5342 5337 5333 5329 5326 5324 5321 5319 5317 5315 5313 5312 5310 5309 5307 5306 5304 5303 5302 5301 5300 5299 5298 5298 5297 5297 5296 5295 5294 5292 5290 5287
5411 5411 5412 5411 5410 5410 5408 5406 5404 5401 5398 5395 5391 5386 5382 5377 5371 5365 5359 5352 5346 5340 5335 5331 5328 5324 5321 5318 5315 5313 5310 5308 5307 5306 5304 5303 5302 5301 5300 5298 5298 5297 5296 5295 5295 5295 5294 5293 5292 5290 5288 5286 5283 5281
5406 5407 5406 5406 5405 5404 5402 5400 5396 5393 5390 5386 5382 5378 5373 5368 5362 5356 5350 5344 5338 5333 5329 5327 5324 5320 5317 5314 5311 5309 5308 5307 5305 5304 5303 5301 5300 5299 5297 5296 5295 5294 5293 5293 5292 5290 5289 5287 5285 5283 5281 5279 5276 5274